Regional Weather Roundup
Issued by NWS Wakefield, VA

Home | Current Version | Previous Version | Graphics & Text | Print | Product List | Glossary On
Versions: 1 2 3 4 5 6 7 8 9 10 11 12 13 14 15 16 17 18 19 20 21 22 23 24 25 26 27 28 29 30 31 32 33 34 35 36 37
000
ASUS41 KAKQ 291514
RWRAKQ

REGIONAL WEATHER ROUNDUP
NATIONAL WEATHER SERVICE WAKEFIELD VA
1100 AM EDT WED JUL 29 2015

Note: "fair" indicates few or no clouds below 12,000 feet with no
significant weather and/or obstructions to visibility. * = Denotes
station may not report precipitation (e.g., rain,snow,etc.),
thunder or fog.

VAZ042-051-052>054-056-291600-
NORTHERN VIRGINIA

CITY           SKY/WX    TMP DP  RH WIND       PRES   REMARKS
WASH NATIONAL  PTSUNNY   86  76  71 S8        30.01S HX  96
DULLES         PTSUNNY   81  74  79 SW5       30.02R
FORT BELVOIR   MOSUNNY   83  75  76 VRB6      30.01S
QUANTICO       PTSUNNY   82  75  79 S9        30.01F
FREDERICKSBRG* PTSUNNY   84  79  83 S8        30.01S HX  96
STAFFORD*      PTSUNNY   81  73  76 S6        30.06R
WARRENTON      PTSUNNY   82  76  84 S6        30.02S
CULPEPER*      PTSUNNY   79  74  85 CALM      30.02F
MANASSAS*      PTSUNNY   82  77  83 CALM      30.02R
LEESBURG*      PTSUNNY   82  77  83 S7        30.03S
WINCHESTER     PTSUNNY   82  72  69 CALM      30.02S
FRONT ROYAL*   FAIR      79  72  78 CALM      30.01F
LURAY*         FAIR      86  73  66 SW5       30.02S
$$

VAZ048-049-060>072-079>083-291600-
CENTRAL AND SOUTH CENTRAL VIRGINIA

CITY           SKY/WX    TMP DP  RH WIND       PRES   REMARKS
RICHMOND       CLOUDY    82  74  76 SW12      30.04R
CHESTERFIELD*  CLOUDY    77  64  65 S6        30.05S
PETERSBURG*    LGT RAIN  76  76 100 CALM      30.06R
HANOVER        CLOUDY    78  73  84 S7        30.05S
TAPPAHANNOCK*  PTSUNNY   84  72  67 SW6       30.04R
QUINTON*       CLOUDY    80  73  81 S3        30.04R
CHARLOTTSVILLE CLOUDY    78  73  84 S3        30.03S HAZE
GORDONSVILLE*  PTSUNNY   81  75  83 S6        30.02S
ORANGE*        CLOUDY    81  75  83 SE6       30.03F
LOUISA*        CLOUDY    79  73  83 SW6       30.02S
BUMPASS*       CLOUDY    80  73  78 S7        30.03R
FARMVILLE*     CLOUDY    80  76  88 SW6       30.03R
CREWE*         CLOUDY   N/A N/A N/A S3        30.04S
FORT PICKETT*  CLOUDY    78  73  86 S7        30.05S
CHASE CITY*    CLOUDY    81  77  87 S5        30.06R
CLARKSVILLE*   CLOUDY    75  73  94 CALM      30.05S
SOUTH HILL*    CLOUDY    75  73  93 S5        30.12R
LAWRENCEVILLE* CLOUDY    75  73  94 SW6       30.06R
EMPORIA*       PTSUNNY   81  72  74 CALM      30.06S
$$

VAZ088>098-291600-
SOUTHEAST VIRGINIA

CITY           SKY/WX    TMP DP  RH WIND       PRES   REMARKS
NORFOLK        MOSUNNY   85  69  58 S7        30.04S
VIRGINIA BEACH MOSUNNY   88  72  58 E5        30.03S
NORFOLK NAVAL  MOSUNNY   86  70  58 VRB6      30.05S
WEST POINT*    MOSUNNY   85  72  63 S3        30.05S
SALUDA*        FAIR      83  74  74 SW6       30.03S
NEWPORT NEWS   MOSUNNY   85  68  56 W8        30.04S
LANGLEY AFB    SUNNY     85  71  63 S7        30.04S
FORT EUSTIS    SUNNY     84  71  63 SW5       30.03R
WILLIAMSBURG*  SUNNY     88  75  66 S6        30.05S HX  97
HR EXEC AP*    FAIR      86  70  58 S6        30.06S
FRANKLIN*      MOSUNNY   83  70  64 CALM      30.05S
WAKEFIELD      SUNNY     83  73  72 CALM      30.04S
$$

VAZ020-022-025-037-045-291600-
WEST CENTRAL AND SOUTHWEST VIRGINIA

CITY           SKY/WX    TMP DP  RH WIND       PRES   REMARKS
STAUNTON*      CLOUDY    81  72  73 S3        30.07S
WAYNESBORO*    PTSUNNY   76  71  85 CALM      30.07S
HOT SPRINGS VA FOG       72  70  95 NW5       30.17S VSB 1/4
LYNCHBURG      CLOUDY    76  73  91 S6        30.07R
DANVILLE       CLOUDY    80  73  79 W5        30.05S
SOUTH BOSTON*  FAIR      79  74  85 SE5       30.05S
MARTINSVILLE   CLOUDY    80  76  86 CALM      30.08S
ROANOKE        CLOUDY    79  71  76 W3        30.08R
BLACKSBURG     CLOUDY    74  72  93 CALM      30.15R
DUBLIN*          N/A     73  73 100 CALM      30.13R FOG
MARION*        CLOUDY    73  69  87 NE5       30.16S FOG
HILLSVILLE*    CLOUDY    73  69  88 CALM      30.13R
RICHLANDS*     CLOUDY    73  71  91 W3        30.14S
WISE*          CLOUDY    79  73  83 NW5       30.15S
ABINGDON*      PTSUNNY   80  72  75 N3        30.11S
$$

MDZ021>025-VAZ099-100-291600-
SOUTHERN MARYLAND AND THE DELMARVA PENINSULA

CITY           SKY/WX    TMP DP  RH WIND       PRES   REMARKS
PATUXENT RIVER PTSUNNY   83  72  69 SW9       30.02S
BAY BRIDGE APT   N/A     82  72  69 SE7       30.02R HAZE
LEONARDTOWN    SUNNY     82  70  65 SW7       30.04R
DOVER          MOSUNNY   85  76  74 SW6       30.01S HX  95
GEORGETOWN     MOSUNNY   85  74  69 S7        30.03S
EASTON         MOSUNNY   84  73  70 SW6       30.05S
CAMBRIDGE      SUNNY     82  70  65 SW7       30.02S
SALISBURY      PTSUNNY   85  74  69 W6        30.02S
OCEAN CITY     MOSUNNY   85  75  72 VRB6      30.03S
WALLOPS ISLAND CLOUDY    83  75  77 SW7       30.04S
ACCOMACK*      CLOUDY    82  77  83 SW6       30.04S
$$

NCZ012>017-030>032-291600-
NORTH CENTRAL AND EASTERN NORTH CAROLINA

CITY           SKY/WX    TMP DP  RH WIND       PRES   REMARKS
ROANOKE RAPIDS FAIR      79  72  78 SW5       30.05S
RALEIGH        PTSUNNY   81  71  71 SE3       30.06R
ELIZABETH CITY SUNNY     85  72  65 SE8       30.04S
AHOSKIE*       PTSUNNY   82  71  68 CALM      30.05R
EDENTON*         N/A     83  71  65 S6        30.04S
CURRITUCK*     PTSUNNY   85  69  58 CALM      30.05R
KILL DEVIL HLS SUNNY     87  69  54 SE6       30.04S
MANTEO         SUNNY     84  69  60 E8        30.05S
CAPE HATTERAS  SUNNY     86  70  58 E12       30.04R
TARBORO*         N/A     85  71  60 E3        30.05R
GOLDSBORO      SUNNY     85  71  61 SE3       30.01F
WASHINGTON     SUNNY     84  72  66 E3        30.04R
GREENVILLE     MOSUNNY   86  72  62 CALM      30.05S
NEW BERN       SUNNY     86  71  60 E8        30.04R
WILMINGTON     SUNNY     86  71  60 E8        30.01S
$$

VAZ048-291600-
ELSEWHERE

CITY           SKY/WX    TMP DP  RH WIND       PRES   REMARKS
HARRISBURG PA  PTSUNNY   85  71  63 SE5       30.01S
BALTIMORE      CLOUDY    83  72  69 CALM      30.01S
ANNAPOLIS      MOSUNNY   82  74  76 SE10      30.01S
ANDREWS AFB    MOSUNNY   84  74  70 S5        30.01S
PHILADELPHIA   PTSUNNY   86  72  62 SW7       30.01S
HENDERSON NC   CLOUDY    77  70  79 S3        30.07R
GREENSBORO     CLOUDY    79  72  79 S7        30.06S
ROCKY MOUNT    CLOUDY    83  71  67 CALM      30.05R
$$

VAZ100-291600-
MARINE

STATION/POSITION TIME  TEMP    WIND        PRES    WAVE   SWELL
                       AIR SEA DIR/SP/G            HT/PER HT/PER
                 (UTC) (F)     (DEG/KT/KT) (MB)    (FT/S) (FT/S)
BRANDYWINE LGT   1400   77 75  220/  4/  4 1017.0S
CAPE MAY NJ      1400   80 78  240/  4/  5 1016.6R
LEWES DE         1400   84 74  270/  3/  5 1016.5F
15NM E FENWICK I 1450   79 79  220/  6/  8 1017.2R   2/ 7   2/ 7
OCEAN-CITY-INLET 1400   80 74  190/  4/  5 1016.0S
WACHAPREAGUE VA  1436   84 83  220/  5/  7 1017.2S
GOOSES REEF MD   1500   82 82  220/  2/  4 1017.4S
COVE POINT MD    1400   81     250/  9/ 12 1016.9F
SOLOMONS ISLAND  1400      82                N/A
BISHOPS HEAD MD  1400   80 83  230/  8/  9 1015.9F
POTOMAC MD       1500   81 83  230/  6/  8 1015.6S   1/ 2
CAMBRIDGE MD     1400   82 83  220/  7/ 10 1015.7F
LEWISETTA VA     1400   80 83  250/  8/  9 1016.2F
RAPPAHANNOCK LGT 1400          210/  8/  9 1017.6R
STINGRAY PT      1400   81 82  230/  6/  8 1017.0F   1
YORK RVR RNG VA  1400   82     230/  7/  8 1016.6R
YORKTOWN VA      1400   81 83  250/  7/  8 1016.8R
JAMESTOWN VA     1500   82 85  170/  2/  6   N/A
DOMINION TERM VA 1400   80     220/  5/  5 1017.1R
KIPTOPEKE VA     1400      81  240/  5/  5   N/A
CHES BAY BRIDGE  1400   81 77  270/  1/  2 1016.8R
CAPE HENRY VA    1400   80     100/  6/  7   N/A
CHESAPEAKE LGHT  1400   80     180/  7/  7 1018.0R
WILLOUBY STN VA  1400   81     260/  6/  7 1018.2R
CAPE HENRY BUOY  1428      81                N/A     2/ 6
1ST LANDING BUOY 1500      82              1017.1R   1/ 4
CAPE CHARLES BUO 1426      81                N/A     2/11   2/11
OFFSHORE WE BUOY 1411      81                N/A     2/10   2/10
64NM E OF VA BCH 1450   81 81  170/  4/  6 1017.6R   2/ 6   2/ 6
DUCK PIER NC     1400   83 64  120/  3/  4 1016.5R
44100 DUCK FRF   1424      81                N/A     2/ 8
44056 DUCK FRF   1411      79                N/A     2/ 9
OREGON INLET NC  1400   82 82  110/  7/  9 1017.0R
HATTERAS NC      1400   82 82  100/  8/ 12 1016.5R
CAPE LOOKOUT NC  1500   81      70/ 13/ 14 1016.1R
$$



USA.gov is the U.S. government's official web portal to all federal, state and local government web resources and services.